Date,TemperatureHighF,TemperatureAvgF,TemperatureLowF,DewpointHighF,DewpointAvgF,DewpointLowF,HumidityHigh,HumidityAvg,HumidityLow,PressureMaxIn,PressureMinIn,WindSpeedMaxMPH,WindSpeedAvgMPH,GustSpeedMaxMPH,PrecipitationSumIn
2014-1-1,22.1,17.3,14.8,17.3,14.1,11.5,91,87,79,30.58,30.34,11,1,14,0.01
2014-1-2,16.6,12.4,3.4,13.8,9.7,-0.5,92,88,83,30.34,30.00,14,5,19,0.00
2014-1-3,9.9,1.4,-8.4,0.2,-3.8,-11.7,87,79,55,30.76,30.22,16,3,18,0.00
2014-1-4,33.5,17.1,-3.8,19.8,7.9,-6.9,94,69,40,30.70,30.31,26,2,26,0.05
2014-1-5,42.9,30.3,17.5,40.1,25.6,14.7,95,83,67,30.32,29.37,21,1,21,0.32
2014-1-6,45.1,15.6,-10.8,43.1,12.2,-15.6,100,86,73,30.24,29.24,32,14,41,0.36
2014-1-7,-0.7,-6.9,-13.2,-6.9,-12.9,-18.7,81,74,65,30.81,30.23,29,12,30,0.00
2014-1-8,15.6,7.0,-3.9,11.2,1.8,-8.1,92,79,63,30.91,30.77,15,4,20,0.00
2014-1-9,28.3,19.5,14.3,23.8,14.5,10.0,92,81,58,30.91,30.56,10,1,12,0.00
2014-1-10,39.1,31.1,25.8,38.5,30.0,23.5,98,96,88,30.56,29.95,8,0,10,0.12
2014-1-11,49.2,39.8,31.8,48.8,38.2,30.4,99,94,82,29.95,29.20,37,6,37,0.94
2014-1-12,33.2,30.7,26.8,31.0,27.5,24.7,96,88,78,30.07,29.53,33,7,33,0.00
2014-1-13,47.7,36.1,23.5,41.6,32.3,22.2,97,87,58,30.04,29.65,13,1,15,0.33
2014-1-14,42.8,34.4,24.1,42.1,32.6,22.9,98,93,81,29.81,29.62,15,2,15,0.12
2014-1-15,33.3,28.0,23.8,31.9,22.9,15.8,97,81,66,30.09,29.77,24,6,27,0.01
2014-1-16,28.2,24.6,20.8,20.7,16.8,13.1,87,72,62,30.07,29.89,13,2,22,0.00
2014-1-17,36.9,29.8,26.1,28.5,25.0,20.6,96,83,63,29.93,29.84,15,4,19,0.02
2014-1-18,26.4,14.3,8.2,25.2,9.8,3.2,95,82,72,30.10,29.88,21,7,23,0.00
2014-1-19,28.7,20.0,4.5,21.0,14.9,2.0,92,81,69,30.04,29.71,30,8,32,0.00
2014-1-20,31.8,24.8,13.0,28.2,20.4,8.2,93,83,74,30.08,29.60,25,7,25,0.00
2014-1-21,12.9,7.0,-0.1,8.2,0.8,-6.6,81,75,65,30.36,30.06,14,4,15,0.00
2014-1-22,9.1,2.5,-4.6,1.0,-4.0,-8.8,85,74,57,30.39,30.30,12,2,13,0.00
2014-1-23,11.8,5.5,-3.1,8.9,1.6,-6.0,100,83,73,30.73,30.30,21,4,22,0.00
2014-1-24,12.8,5.6,-4.7,2.0,-1.5,-8.3,87,73,56,30.75,29.99,28,7,34,0.00
2014-1-25,21.9,15.2,7.0,19.8,11.4,0.4,92,85,56,30.00,29.39,24,8,24,0.00
2014-1-26,26.6,8.7,-8.6,21.6,5.1,-12.1,90,85,80,29.99,29.68,18,4,20,0.00
2014-1-27,33.2,12.9,0.4,30.8,8.0,-4.0,94,80,61,30.44,29.51,35,10,38,0.00
2014-1-28,5.0,-5.8,-19.7,-2.9,-11.0,-24.0,87,78,59,30.77,30.43,20,4,20,0.00
2014-1-29,12.8,-3.0,-24.2,-0.8,-11.1,-29.0,85,69,52,30.70,30.58,27,6,28,0.00
2014-1-30,27.6,10.7,-13.9,9.7,-2.5,-18.1,88,60,33,30.71,30.17,20,2,21,0.00
2014-1-31,34.4,29.8,23.1,24.9,18.0,8.7,93,62,44,30.26,30.13,18,6,19,0.00